Showing default

CHEOPS, 44874

Orbit data source: Space-Track

CHEOPS, 44874 is a payload satellite owned by ESA (ESA) in SSO that was launched on Wed, 18 Dec 2019 UTC via a SOYUZ-ST-A launch vehicle from the French Guiana (FRGUI). Payloads include a variety of satellites, spacecraft, and rockets equipped with specific instruments for various scientific and technological missions. These include communications satellites like Starlink; space stations such as the ISS; scientific satellites like the Hubble; Earth observation satellites from companies like Planet Labs, Umbra, and HawkEye 360; GPS; miniature CubeSats for education and research; and military/defense satellites.

Loading next visibility...
CHEOPS details
Identifier
44874, 2019-092B
Orbit
SSO
Last TLE update9 hours ago
Origin
Flag of ESAESA (ESA)
ManufacturerAirbus Barajas
MissionOperational Civil Astronomy
Bus & MotorSEOSAT, AOCS
Mass273 kg wet, 273 kg dry
Launch date (UTC)
2019-12-18 (5 years ago)
Launch vehicle
SOYUZ-ST-A
Launch site
French Guiana (FRGUI)
Object type
Payload
Rocket body
Debris
Shape & HBRHex Cyl + 1 Pan, Unknown HBR
Radar Cross Section2.624 m², Large (>1 m²)

Expand to show TLE details & history

TLE from 9 hours ago
0 CHEOPS
1 44874U 19092B   24361.22713604  .00001203  00000-0  25331-3 0  9992
2 44874  98.1489 186.1198 0010511 350.7042   9.3962 14.61224229267312
Epoch: 2024-12-26T05:27Z
Definitive object data (Epoch: 2024-12-26T05:27:04.553Z)
Latitude-0.00012°
Longitude9.14129°
Altitude684.882 km
Speed7.518 km/s
True Right ascension12h 24m 28s
True Declination0° 00' 00"
Sunlit
Object was in daylight at TLE epoch
Visualization TLE readout
Latitude-77.43545°
Longitude149.80793°
Altitude716.803 km
Speed7.496 km/s
Apparent Right ascension01h 15m 33s
Apparent Declination-62° 34' 26"
Sunlit
Object is in daylight
Visualization observer readout
Local Sidereal Time14:13:19
Azimuth163.771° S
Elevation-65.736°
Doppler factor1
Orbital elements
Apogee altitude693.726 km
Perigee altitude678.876 km
Semi-major axis7,064.438 km
Eccentricity0.0010511
Inclination98.1489°
RAAN186.1198°
Arg. of periapsis350.7042°
True anomaly9.41589°
Mean anomaly9.3962°
Eccentric anomaly9.40604°
Mean motion3.65533 °/min
BSTAR0.00025331
Orbital period98.49 mins
Loading maneuver chart data...
Loading historical data...
Loading historical data...
Loading historical data...
Loading historical data...
Loading historical data...
Loading historical data...
Loading historical data...

CHEOPS Visibility forecast

Observer location: undefined°, undefined

Span
Click to sort rows by Start time (UTC) header in descending order
Start Az.
Max El. time (UTC)
Max El. Az.
Max El.
End time (UTC)
End Az.
4 mins2024-12-27 00:08:24.401Z64.158° ENE2024-12-27 00:10:24.401Z89.879° E12.756°2024-12-27 00:12:24.401Z115.927° SE
7 mins2024-12-27 01:45:24.401Z359.61° N2024-12-27 01:48:24.401Z280.075° WNW40.992°2024-12-27 01:52:24.401Z208.33° SW
7 mins2024-12-27 12:48:24.401Z182.2° SSW2024-12-27 12:51:24.401Z256.473° W41.696°2024-12-27 12:55:24.401Z338.859° N
|